Regional Weather Roundup
Issued by NWS

Home | Current Version | Previous Version | Graphics & Text | Print | Product List | Glossary On
Versions: 1 2 3 4 5 6 7 8 9 10 11 12 13 14 15 16 17 18 19 20 21 22 23 24 25 26 27 28 29 30 31 32 33 34 35 36 37 38 39 40 41 42 43 44 45 46 47 48 49 50
920
ASUS43 KMPX 051401
RWRMN
WEATHER ROUNDUP FOR MINNESOTA
NATIONAL WEATHER SERVICE TWIN CITIES/CHANHASSEN MN
800 AM CST FRI FEB 05 2016


NOTE: "FAIR" INDICATES FEW OR NO CLOUDS BELOW 12,000 FEET WITH NO
SIGNIFICANT WEATHER AND/OR OBSTRUCTIONS TO VISIBILITY. N/A MEANS
CURRENT SKY AND/OR WEATHER CONDITIONS ARE NOT AVAILABLE.

MNZ060>063-068>070-051500-
   Twin Cities Metro

CITY           SKY/WX    TMP DP  RH WIND       PRES   REMARKS
TWIN CITIES    CLOUDY     7   5  91 SE5       30.34R WCI  -2
ST PAUL        CLOUDY     8   6  92 SE8       30.35S FOG     WCI  -4
CRYSTAL        CLOUDY     8   4  83 S3        30.32R
BLAINE         MOCLDY     7   3  85 S5        30.30F WCI  -2
LAKEVILLE      CLOUDY     0  -2  92 CALM      30.32S
EDEN PRAIRIE   CLOUDY     6   1  80 CALM      30.32R HAZE
SOUTH ST PAUL  PTCLDY     7   3  85 CALM      30.34S
LAKE ELMO      FAIR       0  -4  85 CALM      30.34R
$$
MNZ001>005-007-008-013>017-022>024-027-028-051500-
   Northwest Minnesota

CITY           SKY/WX    TMP DP  RH WIND       PRES   REMARKS
BEMIDJI        CLOUDY    11   9  88 SE5       30.14F WCI   3
HALLOCK        CLOUDY    10   9  92 SE5       30.14S WCI   2
ROSEAU         CLOUDY    18  12  79 CALM      30.14S
WARROAD        CLOUDY    12   9  85 E5        30.15S WCI   4
THIEF RVR FALL CLOUDY    14  10  85 E7        30.14R WCI   4
CROOKSTON      PTCLDY    18  14  86 S7        30.14S WCI   8
FOSSTON        CLOUDY    16  10  79 S8        30.13S WCI   5
DETROIT LAKES  CLOUDY    19  16  86 S7        30.14R WCI  10
MOORHEAD       CLOUDY    19  14  79 S10       30.16R WCI   8
PARK RAPIDS    CLOUDY    12   8  84 SE8       30.14F WCI   0
MAHNOMEN       CLOUDY    19  14  80 S9        30.12R WCI   8
$$
MNZ006-009>011-018-025>026-051500-
   North Central Minnesota

CITY           SKY/WX    TMP DP  RH WIND       PRES   REMARKS
BAUDETTE       CLOUDY    13   8  81 SE5       30.16R WCI   5
FLAG ISLAND    FLURRIES  10   7  85 SE5       30.15F WCI   2
INTL FALLS     CLOUDY     8   5  87 SE5       30.19F WCI   0
WASKISH        CLOUDY    16  12  86 SE5       30.16F WCI   9
LONGVILLE      CLOUDY    12  10  92 S7        30.19S WCI   2
GRAND RAPIDS   CLOUDY     7   1  78 S7        30.21R WCI  -5
CRANE LAKE     CLOUDY     1  -2  85 CALM      30.24S
ORR            CLOUDY     7   1  78 CALM      30.19R
COOK           CLOUDY     5   1  85 CALM      30.22R
WALKER         PTSUNNY   14  10  83 S7        30.17R WCI   4
$$
MNZ012-019>021-037-051500-
   Northeast Minnesota

CITY           SKY/WX    TMP DP  RH WIND       PRES   REMARKS
DULUTH         CLOUDY     2  -2  83 W3        30.24R
ELY            CLOUDY    -2  -6  84 CALM      30.22S
HIBBING        CLOUDY     1  -2  87 CALM      30.22S
EVELETH        CLOUDY     3   0  85 CALM      30.24R
DULUTH HARBOR  CLOUDY     9   3  78 SW5       30.32R WCI   0
TWO HARBORS    CLOUDY     7   1  78 CALM      30.25S
SILVER BAY     CLOUDY     0  -6  78 CALM      30.25S
GRAND MARAIS     N/A      8   2  76 CALM      30.30R
G MARAIS ARPRT CLEAR     -6 -11  77 CALM      30.20R
$$
MNZ029>031-032-039>041-046>048-054>057-064-051500-
   West Central Minnesota

CITY           SKY/WX    TMP DP  RH WIND       PRES   REMARKS
FERGUS FALLS   CLOUDY    18  16  93 S13       30.20S WCI   4
WHEATON        CLOUDY    19  16  86 SE7       30.19R WCI  10
MORRIS         CLOUDY    16  14  93 SE13      30.18R WCI   2
ALEXANDRIA     CLOUDY    16  12  84 S12       30.18F WCI   3
ELBOW LAKE     CLOUDY    17  15  90 SE13      30.18R WCI   4
WADENA         CLOUDY    12  10  92 S7        30.16S WCI   2
GLENWOOD       CLOUDY    16  14  93 SE8       30.20S WCI   5
APPLETON       CLOUDY    16  10  79 SE7       30.20S WCI   6
BENSON         CLOUDY    16  10  79 CALM      30.21S
ORTONVILLE     CLOUDY    14  10  85 SE8       30.17S WCI   3
MADISON        CLOUDY    16  12  86 S8        30.19F WCI   5
WILLMAR        FAIR      16  14  93 SE9       30.24F WCI   4
$$
MNZ033>034-036-042>043-049>051-058-059-051500-
   Central Minnesota

CITY           SKY/WX    TMP DP  RH WIND       PRES   REMARKS
ST CLOUD       CLOUDY     6   3  87 SE6       30.27S WCI  -4
SAUK CENTRE    CLOUDY    14  12  92 SE9       30.22S WCI   1
PAYNESVILLE    CLOUDY    13  11  93 SE7       30.24F WCI   3
AITKIN         CLOUDY    10   3  72 S7        30.22R WCI   0
PINE RIVER     CLOUDY     9   5  85 SE5       30.22F WCI   0
BRAINERD       CLOUDY    10   7  87 S8        30.22S WCI  -2
STAPLES        CLOUDY    10   9  92 S8        30.19S WCI  -1
LONG PRAIRIE   FAIR      10   9  92 SE6       30.21S WCI   1
LITTLE FALLS   MOCLDY    10   7  85 SE6       30.24F WCI   1
LITCHFIELD     CLOUDY    14  14 100 SE5       30.27S WCI   6
BUFFALO        CLOUDY     6   3  87 CALM      30.31S
MAPLE LAKE     MOCLDY     8   6  91 CALM      30.30S
$$
MNZ037-044-045-052-053-051500-
   East Central Minnesota

CITY           SKY/WX    TMP DP  RH WIND       PRES   REMARKS
PRINCETON      PTCLDY     1  -2  85 CALM      30.29R
MORA           CLOUDY     0  -4  85 CALM      30.31R FOG
CAMBRIDGE      CLOUDY     1  -6  71 CALM      30.29R
RUSH CITY      CLOUDY     0  -3  87 CALM      30.32R
MOOSE LAKE     CLOUDY     0  -6  78 CALM      30.26S
HINCKLEY       FAIR       1  -2  85 CALM      30.29S
CLOQUET        CLOUDY     5   1  85 CALM      30.25R
MCGREGOR       CLOUDY     9   5  85 SE3       30.24S
$$
MNZ071>073-080-081-089-090-097-098-051500-
   Southwest Minnesota

CITY           SKY/WX    TMP DP  RH WIND       PRES   REMARKS
MONTEVIDEO     CLOUDY    12  10  92 S9        30.23S WCI   0
GRANITE FALLS  CLOUDY    13  10  87 SE10      30.25S WCI   0
CANBY          CLOUDY    28  16  59 SW13G24   30.18S WCI  18
MARSHALL       CLOUDY    19  13  77 SW20G28   30.20F WCI   3
REDWOOD FALLS  CLOUDY    12   8  84 SE12      30.26F WCI  -2
OLIVIA         CLOUDY    12  10  92 SE9       30.25F WCI   0
PIPESTONE        N/A     18   9  68 S14       30.19F WCI   4
WINDOM         CLOUDY    16  12  86 S6        30.26S WCI   7
WORTHINGTON    CLOUDY    16  10  79 SW15      30.25S WCI   1
JACKSON        CLOUDY    10   7  85 S7        30.27S WCI   0
TRACY          CLOUDY    22  16  78 S17G23    30.22R WCI   7
SLAYTON        CLOUDY    16  14  92 S14       30.23R WCI   2
$$
MNZ065>067-074>077-082>085-091>093-051500-
   South Central Minnesota

CITY           SKY/WX    TMP DP  RH WIND       PRES   REMARKS
MANKATO        CLOUDY     5   1  85 SE9       30.32R WCI  -9
NEW ULM        CLOUDY     7   3  85 S6        30.30S WCI  -3
ST JAMES       CLOUDY    12  10  92 SE6       30.31S WCI   3
FAIRMONT       CLOUDY     9   5  85 S9        30.30R WCI  -5
GLENCOE        CLOUDY    11   9  92 CALM      30.30S
FARIBAULT        N/A      3   1  92 CALM      30.33S
OWATONNA       PTCLDY     9   5  85 CALM      30.33R
WASECA         CLOUDY     7   3  85 CALM      30.34S
ALBERT LEA       N/A      7   3  85 CALM      30.33S
$$
MNZ078>079-086>088-094>096-051500-
   Southeast Minnesota

CITY           SKY/WX    TMP DP  RH WIND       PRES   REMARKS
ROCHESTER      PTCLDY     5   2  87 SW5       30.32R WCI  -4
RED WING       PTCLDY     1  -2  85 CALM      30.35R
STANTON        PTCLDY     2  -2  83 CALM      30.33S
DODGE CENTER   PTCLDY     3   1  92 CALM      30.31S
WINONA         CLOUDY     5   1  85 CALM      30.39R
AUSTIN         CLOUDY     1   0  92 CALM      30.34R
PRESTON        CLOUDY     6   3  87 SW3       30.33S
$$
ABBREVIATIONS USED IN REMARKS
   TC - TEMPERATURES IN CELSIUS
  WCI - WIND CHILL INDEX
   HX - HEAT INDEX
  VSB - VISIBILITY
$$




USA.gov is the U.S. government's official web portal to all federal, state and local government web resources and services.